Terminal Aerodrome Forecast
Issued by NWS Pueblo, CO

Home | Current Version | Previous Version | Text Only | Print | Product List | Glossary On
Versions: 1 2 3 4 5 6 7 8 9 10 11 12 13 14 15 16 17 18 19 20 21 22 23 24 25 26 27 28 29 30 31 32 33 34 35 36 37 38 39 40 41 42 43 44 45 46 47 48 49 50
000
FTUS45 KPUB 031147
TAFPUB
TAF
KPUB 031147Z 0312/0412 29015KT P6SM SCT200
      TEMPO 0312/0315 29015G25KT
     FM031700 01015G25KT P6SM SCT070 BKN150
     FM032000 09014KT P6SM SCT040 BKN100
     FM032300 09010KT P6SM VCSH BKN020
     FM040300 09008KT 3SM -SN OVC015
     FM040900 03015G25KT 3SM -SN BR OVC025=

USA.gov is the U.S. government's official web portal to all federal, state and local government web resources and services.